Time,TemperatureF,DewpointF,PressureIn,WindDirection,WindDirectionDegrees,WindSpeedMPH,WindSpeedGustMPH,Humidity,HourlyPrecipIn,Conditions,Clouds,dailyrainin,SoftwareType,DateUTC
2013-04-22 00:01:00,43.8,43.0,30.06,SSW,208,0.0,-999.0,96,-99.99,,,0.03,weatherlink.com 1.10,2013-04-22 05:01:00,
2013-04-22 00:17:00,44.1,43.0,30.05,SSE,166,2.0,-999.0,96,-99.99,,,0.03,weatherlink.com 1.10,2013-04-22 05:17:00,
2013-04-22 00:32:00,44.1,43.0,30.05,South,179,3.0,-999.0,96,-99.99,,,0.03,weatherlink.com 1.10,2013-04-22 05:32:00,
2013-04-22 00:47:00,44.1,43.0,30.05,SSW,196,1.0,-999.0,96,-99.99,,,0.03,weatherlink.com 1.10,2013-04-22 05:47:00,
2013-04-22 01:02:00,44.1,43.0,30.06,SSE,163,1.0,-999.0,97,-99.99,,,0.03,weatherlink.com 1.10,2013-04-22 06:02:00,
2013-04-22 01:17:00,44.2,43.0,30.06,South,188,0.0,-999.0,97,-99.99,,,0.03,weatherlink.com 1.10,2013-04-22 06:17:00,
2013-04-22 01:32:00,44.3,44.0,30.06,SSW,199,0.0,-999.0,97,-99.99,,,0.03,weatherlink.com 1.10,2013-04-22 06:32:00,
2013-04-22 01:47:00,44.5,44.0,30.06,SSE,163,0.0,-999.0,97,-99.99,,,0.03,weatherlink.com 1.10,2013-04-22 06:47:00,
2013-04-22 02:02:00,44.6,44.0,30.06,West,275,1.0,-999.0,97,-99.99,,,0.03,weatherlink.com 1.10,2013-04-22 07:02:00,
2013-04-22 02:17:00,44.5,44.0,30.06,WNW,285,0.0,-999.0,97,-99.99,,,0.03,weatherlink.com 1.10,2013-04-22 07:17:00,
2013-04-22 02:32:00,44.1,43.0,30.07,West,266,1.0,-999.0,96,-99.99,,,0.03,weatherlink.com 1.10,2013-04-22 07:32:00,
2013-04-22 02:47:00,43.5,43.0,30.07,WNW,284,0.0,-999.0,96,-99.99,,,0.03,weatherlink.com 1.10,2013-04-22 07:47:00,
2013-04-22 03:02:00,43.2,42.0,30.06,West,259,0.0,-999.0,96,-99.99,,,0.03,weatherlink.com 1.10,2013-04-22 08:02:00,
2013-04-22 03:17:00,42.9,42.0,30.06,West,277,1.0,-999.0,96,-99.99,,,0.03,weatherlink.com 1.10,2013-04-22 08:17:00,
2013-04-22 03:32:00,42.6,42.0,30.06,West,277,0.0,-999.0,96,-99.99,,,0.04,weatherlink.com 1.10,2013-04-22 08:32:00,
2013-04-22 03:47:00,42.3,41.0,30.07,NW,307,0.0,-999.0,96,-99.99,,,0.05,weatherlink.com 1.10,2013-04-22 08:47:00,
2013-04-22 04:02:00,41.9,41.0,30.07,West,264,0.0,-999.0,96,-99.99,,,0.05,weatherlink.com 1.10,2013-04-22 09:02:00,
2013-04-22 04:17:00,41.8,41.0,30.08,West,264,0.0,-999.0,96,-99.99,,,0.05,weatherlink.com 1.10,2013-04-22 09:17:00,
2013-04-22 04:32:00,41.2,40.0,30.08,NNE,18,0.0,-999.0,96,-99.99,,,0.06,weatherlink.com 1.10,2013-04-22 09:32:00,
2013-04-22 04:47:00,40.8,40.0,30.08,West,273,0.0,-999.0,96,-99.99,,,0.06,weatherlink.com 1.10,2013-04-22 09:47:00,
2013-04-22 05:02:00,40.3,39.0,30.09,ENE,63,0.0,-999.0,96,-99.99,,,0.07,weatherlink.com 1.10,2013-04-22 10:02:00,
2013-04-22 05:18:00,40.1,39.0,30.09,ENE,63,0.0,-999.0,96,-99.99,,,0.07,weatherlink.com 1.10,2013-04-22 10:18:00,
2013-04-22 05:33:00,39.8,39.0,30.09,West,267,1.0,-999.0,96,-99.99,,,0.07,weatherlink.com 1.10,2013-04-22 10:33:00,
2013-04-22 05:48:00,39.6,39.0,30.09,WNW,283,0.0,-999.0,96,-99.99,,,0.08,weatherlink.com 1.10,2013-04-22 10:48:00,
2013-04-22 06:03:00,39.3,38.0,30.10,WNW,283,0.0,-999.0,96,-99.99,,,0.08,weatherlink.com 1.10,2013-04-22 11:03:00,
2013-04-22 06:17:00,39.2,38.0,30.10,WNW,283,0.0,-999.0,96,-99.99,,,0.08,weatherlink.com 1.10,2013-04-22 11:17:00,
2013-04-22 06:32:00,39.1,38.0,30.11,WNW,283,0.0,-999.0,96,-99.99,,,0.08,weatherlink.com 1.10,2013-04-22 11:32:00,
2013-04-22 06:47:00,38.9,38.0,30.11,North,355,1.0,-999.0,96,-99.99,,,0.09,weatherlink.com 1.10,2013-04-22 11:47:00,
2013-04-22 07:02:00,38.6,38.0,30.11,North,355,0.0,-999.0,96,-99.99,,,0.09,weatherlink.com 1.10,2013-04-22 12:02:00,
2013-04-22 07:18:00,38.5,38.0,30.12,North,5,0.0,-999.0,96,-99.99,,,0.09,weatherlink.com 1.10,2013-04-22 12:18:00,
2013-04-22 07:33:00,38.5,38.0,30.12,North,5,1.0,-999.0,96,-99.99,,,0.09,weatherlink.com 1.10,2013-04-22 12:33:00,
2013-04-22 07:48:00,38.3,37.0,30.12,North,5,0.0,-999.0,96,-99.99,,,0.09,weatherlink.com 1.10,2013-04-22 12:48:00,
2013-04-22 08:03:00,38.3,37.0,30.13,North,5,0.0,-999.0,96,-99.99,,,0.09,weatherlink.com 1.10,2013-04-22 13:03:00,
2013-04-22 08:18:00,38.3,37.0,30.13,North,360,4.0,-999.0,96,-99.99,,,0.09,weatherlink.com 1.10,2013-04-22 13:18:00,
2013-04-22 08:33:00,38.3,37.0,30.13,NNE,16,0.0,-999.0,96,-99.99,,,0.09,weatherlink.com 1.10,2013-04-22 13:33:00,
2013-04-22 08:48:00,38.2,38.0,30.12,NNE,16,0.0,-999.0,97,-99.99,,,0.09,weatherlink.com 1.10,2013-04-22 13:48:00,
2013-04-22 09:03:00,38.3,38.0,30.12,NNE,16,1.0,-999.0,97,-99.99,,,0.09,weatherlink.com 1.10,2013-04-22 14:03:00,
2013-04-22 09:18:00,38.3,38.0,30.12,NNE,19,0.0,-999.0,97,-99.99,,,0.09,weatherlink.com 1.10,2013-04-22 14:18:00,
2013-04-22 09:33:00,38.3,38.0,30.11,North,360,0.0,-999.0,97,-99.99,,,0.09,weatherlink.com 1.10,2013-04-22 14:33:00,
2013-04-22 09:48:00,38.5,38.0,30.12,ENE,70,0.0,-999.0,97,-99.99,,,0.09,weatherlink.com 1.10,2013-04-22 14:48:00,
2013-04-22 10:03:00,38.6,38.0,30.12,North,360,0.0,-999.0,97,-99.99,,,0.09,weatherlink.com 1.10,2013-04-22 15:03:00,
2013-04-22 10:18:00,38.8,38.0,30.12,North,360,0.0,-999.0,97,-99.99,,,0.09,weatherlink.com 1.10,2013-04-22 15:18:00,
2013-04-22 10:33:00,38.9,38.0,30.12,North,360,0.0,-999.0,97,-99.99,,,0.09,weatherlink.com 1.10,2013-04-22 15:33:00,
2013-04-22 10:48:00,38.8,38.0,30.12,North,360,0.0,-999.0,97,-99.99,,,0.09,weatherlink.com 1.10,2013-04-22 15:48:00,
2013-04-22 11:03:00,38.8,38.0,30.13,North,360,0.0,-999.0,97,-99.99,,,0.09,weatherlink.com 1.10,2013-04-22 16:03:00,
2013-04-22 11:19:00,38.9,38.0,30.13,North,360,0.0,-999.0,97,-99.99,,,0.09,weatherlink.com 1.10,2013-04-22 16:19:00,
2013-04-22 11:34:00,39.1,38.0,30.12,North,360,1.0,-999.0,97,-99.99,,,0.09,weatherlink.com 1.10,2013-04-22 16:34:00,
2013-04-22 11:49:00,39.2,39.0,30.13,North,355,0.0,-999.0,97,-99.99,,,0.09,weatherlink.com 1.10,2013-04-22 16:49:00,
2013-04-22 12:04:00,39.1,38.0,30.12,West,271,0.0,-999.0,97,-99.99,,,0.09,weatherlink.com 1.10,2013-04-22 17:04:00,
2013-04-22 12:19:00,39.2,39.0,30.11,West,280,0.0,-999.0,97,-99.99,,,0.09,weatherlink.com 1.10,2013-04-22 17:19:00,
2013-04-22 12:34:00,38.9,38.0,30.11,North,355,0.0,-999.0,97,-99.99,,,0.09,weatherlink.com 1.10,2013-04-22 17:34:00,
2013-04-22 12:49:00,39.1,38.0,30.10,NNW,339,0.0,-999.0,97,-99.99,,,0.09,weatherlink.com 1.10,2013-04-22 17:49:00,
2013-04-22 13:04:00,39.1,38.0,30.10,North,355,0.0,-999.0,97,-99.99,,,0.09,weatherlink.com 1.10,2013-04-22 18:04:00,
2013-04-22 13:19:00,39.2,39.0,30.08,NE,49,0.0,-999.0,97,-99.99,,,0.09,weatherlink.com 1.10,2013-04-22 18:19:00,
2013-04-22 13:34:00,39.1,38.0,30.08,ESE,109,0.0,-999.0,97,-99.99,,,0.09,weatherlink.com 1.10,2013-04-22 18:34:00,
2013-04-22 13:49:00,38.8,38.0,30.07,North,350,0.0,-999.0,97,-99.99,,,0.09,weatherlink.com 1.10,2013-04-22 18:49:00,
2013-04-22 14:04:00,38.6,38.0,30.08,NNE,21,0.0,-999.0,97,-99.99,,,0.09,weatherlink.com 1.10,2013-04-22 19:04:00,
2013-04-22 14:19:00,38.5,38.0,30.07,NNE,12,0.0,-999.0,97,-99.99,,,0.09,weatherlink.com 1.10,2013-04-22 19:19:00,
2013-04-22 14:34:00,38.3,38.0,30.06,North,11,0.0,-999.0,97,-99.99,,,0.09,weatherlink.com 1.10,2013-04-22 19:34:00,
2013-04-22 14:49:00,38.3,38.0,30.05,NE,36,0.0,-999.0,97,-99.99,,,0.09,weatherlink.com 1.10,2013-04-22 19:49:00,
2013-04-22 15:04:00,38.3,38.0,30.05,SSE,153,0.0,-999.0,97,-99.99,,,0.10,weatherlink.com 1.10,2013-04-22 20:04:00,
2013-04-22 15:19:00,38.3,38.0,30.04,SSE,153,0.0,-999.0,97,-99.99,,,0.13,weatherlink.com 1.10,2013-04-22 20:19:00,
2013-04-22 15:34:00,38.5,38.0,30.03,SSE,153,0.0,-999.0,97,-99.99,,,0.14,weatherlink.com 1.10,2013-04-22 20:34:00,
2013-04-22 15:50:00,38.5,38.0,30.03,SSE,153,0.0,-999.0,97,-99.99,,,0.15,weatherlink.com 1.10,2013-04-22 20:50:00,
2013-04-22 16:05:00,38.5,38.0,30.02,SSE,153,0.0,-999.0,97,-99.99,,,0.17,weatherlink.com 1.10,2013-04-22 21:05:00,
2013-04-22 16:20:00,38.6,38.0,30.01,SSE,153,0.0,-999.0,97,-99.99,,,0.17,weatherlink.com 1.10,2013-04-22 21:20:00,
2013-04-22 16:35:00,38.6,38.0,30.01,SSE,153,0.0,-999.0,97,-99.99,,,0.18,weatherlink.com 1.10,2013-04-22 21:35:00,
2013-04-22 16:50:00,38.6,38.0,30.01,NNE,15,0.0,-999.0,97,-99.99,,,0.20,weatherlink.com 1.10,2013-04-22 21:50:00,
2013-04-22 17:05:00,38.8,38.0,30.00,NNE,20,1.0,-999.0,97,-99.99,,,0.22,weatherlink.com 1.10,2013-04-22 22:05:00,
2013-04-22 17:19:00,38.8,38.0,30.00,North,360,3.0,-999.0,97,-99.99,,,0.26,weatherlink.com 1.10,2013-04-22 22:19:00,
2013-04-22 17:34:00,38.6,38.0,30.01,NNE,15,4.0,-999.0,97,-99.99,,,0.29,weatherlink.com 1.10,2013-04-22 22:34:00,
2013-04-22 17:49:00,38.5,38.0,30.01,North,355,2.0,-999.0,97,-99.99,,,0.33,weatherlink.com 1.10,2013-04-22 22:49:00,
2013-04-22 18:04:00,38.3,38.0,30.00,North,355,0.0,-999.0,97,-99.99,,,0.37,weatherlink.com 1.10,2013-04-22 23:04:00,
2013-04-22 18:20:00,38.3,38.0,29.99,NW,312,0.0,-999.0,97,-99.99,,,0.38,weatherlink.com 1.10,2013-04-22 23:20:00,
2013-04-22 18:35:00,38.3,38.0,29.99,North,355,0.0,-999.0,97,-99.99,,,0.40,weatherlink.com 1.10,2013-04-22 23:35:00,
2013-04-22 18:50:00,38.2,38.0,29.99,NE,51,1.0,-999.0,97,-99.99,,,0.43,weatherlink.com 1.10,2013-04-22 23:50:00,
2013-04-22 19:05:00,38.0,37.0,29.98,NNW,341,0.0,-999.0,97,-99.99,,,0.43,weatherlink.com 1.10,2013-04-23 00:05:00,
2013-04-22 19:20:00,37.8,37.0,29.98,NNW,348,0.0,-999.0,97,-99.99,,,0.44,weatherlink.com 1.10,2013-04-23 00:20:00,
2013-04-22 19:35:00,37.6,37.0,29.98,North,9,0.0,-999.0,97,-99.99,,,0.45,weatherlink.com 1.10,2013-04-23 00:35:00,
2013-04-22 19:50:00,37.3,37.0,29.98,NE,41,0.0,-999.0,97,-99.99,,,0.45,weatherlink.com 1.10,2013-04-23 00:50:00,
2013-04-22 20:05:00,37.0,36.0,29.98,NNE,17,1.0,-999.0,97,-99.99,,,0.46,weatherlink.com 1.10,2013-04-23 01:05:00,
2013-04-22 20:20:00,36.6,36.0,29.98,NNE,16,2.0,-999.0,97,-99.99,,,0.47,weatherlink.com 1.10,2013-04-23 01:20:00,
2013-04-22 20:35:00,36.0,35.0,29.98,North,5,0.0,-999.0,96,-99.99,,,0.48,weatherlink.com 1.10,2013-04-23 01:35:00,
2013-04-22 20:50:00,35.2,34.0,29.98,South,173,0.0,-999.0,96,-99.99,,,0.49,weatherlink.com 1.10,2013-04-23 01:50:00,
2013-04-22 21:05:00,34.4,33.0,29.99,NNE,17,2.0,-999.0,96,-99.99,,,0.50,weatherlink.com 1.10,2013-04-23 02:05:00,
2013-04-22 21:20:00,34.0,33.0,29.99,NNE,23,1.0,-999.0,96,-99.99,,,0.51,weatherlink.com 1.10,2013-04-23 02:20:00,
2013-04-22 21:35:00,33.7,33.0,29.99,NNW,346,2.0,-999.0,96,-99.99,,,0.52,weatherlink.com 1.10,2013-04-23 02:35:00,
2013-04-22 21:50:00,33.5,33.0,30.00,North,360,0.0,-999.0,96,-99.99,,,0.53,weatherlink.com 1.10,2013-04-23 02:50:00,
2013-04-22 22:07:00,33.2,32.0,29.99,NW,323,1.0,-999.0,96,-99.99,,,0.54,weatherlink.com 1.10,2013-04-23 03:07:00,
2013-04-22 22:20:00,33.1,32.0,29.98,North,360,0.0,-999.0,96,-99.99,,,0.55,weatherlink.com 1.10,2013-04-23 03:20:00,
2013-04-22 22:35:00,32.9,32.0,30.00,North,5,4.0,-999.0,96,-99.99,,,0.57,weatherlink.com 1.10,2013-04-23 03:35:00,
2013-04-22 22:50:00,32.7,32.0,29.99,North,5,4.0,-999.0,96,-99.99,,,0.58,weatherlink.com 1.10,2013-04-23 03:50:00,
2013-04-22 23:05:00,32.7,32.0,29.99,NNE,20,5.0,-999.0,96,-99.99,,,0.01,weatherlink.com 1.10,2013-04-23 04:05:00,
2013-04-22 23:21:00,32.5,32.0,29.99,NE,47,1.0,-999.0,96,-99.99,,,0.02,weatherlink.com 1.10,2013-04-23 04:21:00,
2013-04-22 23:36:00,32.4,31.0,29.98,NNE,21,1.0,-999.0,96,-99.99,,,0.03,weatherlink.com 1.10,2013-04-23 04:36:00,
2013-04-22 23:51:00,32.4,31.0,29.97,NNE,17,3.0,-999.0,96,-99.99,,,0.04,weatherlink.com 1.10,2013-04-23 04:51:00,